TimeEDT,TemperatureF,Dew PointF,Humidity,Sea Level PressureIn,VisibilityMPH,Wind Direction,Wind SpeedMPH,Gust SpeedMPH,PrecipitationIn,Events,Conditions,WindDirDegrees,DateUTC
12:53 AM,63.0,60.1,90,29.81,10.0,South,3.5,-,N/A,,Clear,170,2013-05-23 04:53:00
1:53 AM,64.9,61.0,87,29.81,10.0,SSW,9.2,-,N/A,,Overcast,210,2013-05-23 05:53:00
2:26 AM,64.4,60.8,88,29.82,10.0,WSW,6.9,16.1,N/A,,Mostly Cloudy,240,2013-05-23 06:26:00
2:35 AM,64.4,60.8,88,29.82,10.0,SW,8.1,-,N/A,,Mostly Cloudy,230,2013-05-23 06:35:00
2:53 AM,64.9,61.0,87,29.81,10.0,SW,6.9,-,N/A,,Scattered Clouds,230,2013-05-23 06:53:00
3:18 AM,64.4,62.6,94,29.82,9.0,WSW,11.5,16.1,N/A,,Mostly Cloudy,250,2013-05-23 07:18:00
3:53 AM,66.9,61.0,81,29.81,6.0,WSW,9.2,-,N/A,,Haze,250,2013-05-23 07:53:00
4:18 AM,64.4,60.8,88,29.82,6.0,WSW,6.9,-,N/A,,Mostly Cloudy,240,2013-05-23 08:18:00
4:25 AM,64.4,60.8,88,29.82,6.0,WSW,8.1,-,N/A,,Partly Cloudy,240,2013-05-23 08:25:00
4:53 AM,63.0,61.0,93,29.80,5.0,SW,5.8,-,N/A,,Mostly Cloudy,220,2013-05-23 08:53:00
5:53 AM,62.1,59.0,90,29.82,6.0,WSW,4.6,-,N/A,,Clear,240,2013-05-23 09:53:00
6:38 AM,62.6,60.8,94,29.84,3.0,SW,5.8,-,N/A,,Mostly Cloudy,220,2013-05-23 10:38:00
6:41 AM,62.6,60.8,94,29.85,2.5,SW,6.9,-,N/A,,Overcast,220,2013-05-23 10:41:00
6:53 AM,64.0,61.0,90,29.83,2.5,SW,6.9,-,N/A,,Overcast,230,2013-05-23 10:53:00
7:18 AM,64.4,62.6,94,29.85,2.5,SSW,5.8,-,0.00,Rain,Light Rain,210,2013-05-23 11:18:00
7:22 AM,64.4,62.6,94,29.85,3.0,SSW,8.1,-,0.00,Rain,Light Rain,210,2013-05-23 11:22:00
7:53 AM,64.9,61.0,87,29.83,3.0,SSW,4.6,-,0.00,,Overcast,210,2013-05-23 11:53:00
8:02 AM,64.4,62.6,94,29.85,4.0,SSW,6.9,-,N/A,,Overcast,200,2013-05-23 12:02:00
8:32 AM,64.4,60.8,88,29.86,4.0,SSW,4.6,-,N/A,,Overcast,210,2013-05-23 12:32:00
8:53 AM,66.0,61.0,84,29.84,4.0,SW,3.5,-,N/A,,Haze,230,2013-05-23 12:53:00
9:53 AM,64.9,61.0,87,29.86,5.0,SW,9.2,-,0.02,Rain,Light Rain,230,2013-05-23 13:53:00
10:53 AM,68.0,62.1,81,29.86,10.0,WSW,8.1,-,0.01,,Overcast,250,2013-05-23 14:53:00
11:04 AM,66.2,60.8,83,29.87,10.0,WSW,8.1,-,N/A,,Overcast,250,2013-05-23 15:04:00
11:19 AM,68.0,60.8,78,29.87,10.0,WSW,10.4,-,N/A,,Overcast,240,2013-05-23 15:19:00
11:53 AM,68.0,60.1,76,29.86,10.0,WSW,10.4,-,N/A,,Overcast,240,2013-05-23 15:53:00
12:48 PM,69.8,59.0,68,29.85,10.0,Variable,6.9,-,N/A,,Overcast,0,2013-05-23 16:48:00
12:53 PM,70.0,60.1,71,29.83,10.0,West,9.2,-,N/A,,Overcast,280,2013-05-23 16:53:00
1:11 PM,66.2,57.2,73,29.85,8.0,West,8.1,19.6,0.01,Rain,Light Rain,260,2013-05-23 17:11:00
1:53 PM,72.0,57.0,59,29.82,10.0,West,13.8,23.0,0.01,,Mostly Cloudy,280,2013-05-23 17:53:00
2:53 PM,72.0,54.0,53,29.82,10.0,West,18.4,24.2,N/A,,Overcast,260,2013-05-23 18:53:00
3:53 PM,72.0,55.0,55,29.83,10.0,West,17.3,25.3,N/A,,Overcast,260,2013-05-23 19:53:00
4:53 PM,72.0,54.0,53,29.83,10.0,West,12.7,24.2,N/A,,Mostly Cloudy,270,2013-05-23 20:53:00
5:53 PM,68.0,53.1,59,29.85,10.0,WNW,13.8,24.2,N/A,,Mostly Cloudy,300,2013-05-23 21:53:00
6:53 PM,61.0,57.0,87,29.88,5.0,WNW,8.1,-,0.05,Rain,Light Rain,300,2013-05-23 22:53:00
7:53 PM,62.1,57.0,84,29.90,8.0,West,12.7,23.0,0.01,,Overcast,280,2013-05-23 23:53:00
8:01 PM,59.0,55.4,88,29.92,2.5,NNW,17.3,32.2,0.02,Rain,Rain,340,2013-05-24 00:01:00
8:04 PM,59.0,55.4,88,29.92,1.8,NNW,11.5,27.6,0.03,Rain,Rain,340,2013-05-24 00:04:00
8:09 PM,59.0,55.4,88,29.92,2.0,NNW,11.5,21.9,0.03,Rain,Light Rain,340,2013-05-24 00:09:00
8:17 PM,57.2,55.4,94,29.93,2.0,NNW,12.7,-,0.05,Rain,Rain,340,2013-05-24 00:17:00
8:26 PM,57.2,55.4,94,29.93,3.0,NNW,11.5,18.4,0.06,Rain,Light Rain,340,2013-05-24 00:26:00
8:45 PM,55.4,51.8,88,29.95,10.0,NNW,16.1,24.2,0.06,,Overcast,330,2013-05-24 00:45:00
8:53 PM,55.9,52.0,87,29.95,10.0,North,13.8,23.0,0.06,,Overcast,350,2013-05-24 00:53:00
9:51 PM,51.8,46.4,82,29.99,10.0,North,17.3,24.2,N/A,,Overcast,350,2013-05-24 01:51:00
9:53 PM,52.0,46.0,80,29.99,10.0,North,16.1,23.0,N/A,,Overcast,350,2013-05-24 01:53:00
10:53 PM,50.0,44.1,80,30.02,10.0,North,15.0,23.0,N/A,,Overcast,360,2013-05-24 02:53:00
11:53 PM,50.0,43.0,77,30.04,10.0,North,12.7,20.7,N/A,,Overcast,350,2013-05-24 03:53:00